TimePST,TemperatureF,Dew PointF,Humidity,Sea Level PressureIn,VisibilityMPH,Wind Direction,Wind SpeedMPH,Gust SpeedMPH,PrecipitationIn,Events,Conditions,WindDirDegrees,DateUTC
12:15 AM,46.4,41.0,81,30.25,10.0,Calm,Calm,-,N/A,,Clear,0,2014-01-10 08:15:00
12:35 AM,46.4,41.0,81,30.25,10.0,ENE,5.8,-,N/A,,Clear,70,2014-01-10 08:35:00
12:55 AM,46.4,41.0,81,30.25,10.0,NE,10.4,-,N/A,,Clear,50,2014-01-10 08:55:00
1:15 AM,44.6,41.0,87,30.24,10.0,NNE,4.6,-,N/A,,Clear,30,2014-01-10 09:15:00
1:35 AM,44.6,41.0,87,30.25,10.0,NE,4.6,-,N/A,,Clear,40,2014-01-10 09:35:00
1:55 AM,44.6,41.0,87,30.26,10.0,Calm,Calm,-,N/A,,Clear,0,2014-01-10 09:55:00
2:15 AM,44.6,41.0,87,30.26,10.0,ENE,3.5,-,N/A,,Clear,70,2014-01-10 10:15:00
2:35 AM,44.6,41.0,87,30.25,10.0,Calm,Calm,-,N/A,,Clear,0,2014-01-10 10:35:00
2:55 AM,44.6,41.0,87,30.25,10.0,Calm,Calm,-,N/A,,Clear,0,2014-01-10 10:55:00
3:15 AM,44.6,39.2,81,30.25,10.0,Calm,Calm,-,N/A,,Clear,0,2014-01-10 11:15:00
3:35 AM,42.8,41.0,93,30.25,10.0,Calm,Calm,-,N/A,,Clear,0,2014-01-10 11:35:00
3:55 AM,39.2,39.2,100,30.25,10.0,Calm,Calm,-,N/A,,Clear,0,2014-01-10 11:55:00
4:15 AM,41.0,39.2,93,30.25,10.0,Calm,Calm,-,N/A,,Clear,0,2014-01-10 12:15:00
4:35 AM,39.2,39.2,100,30.25,10.0,Calm,Calm,-,N/A,,Clear,0,2014-01-10 12:35:00
4:55 AM,39.2,39.2,100,30.25,10.0,Calm,Calm,-,N/A,,Clear,0,2014-01-10 12:55:00
5:15 AM,41.0,41.0,100,30.24,10.0,Calm,Calm,-,N/A,,Clear,0,2014-01-10 13:15:00
5:35 AM,41.0,41.0,100,30.25,10.0,Calm,Calm,-,N/A,,Clear,0,2014-01-10 13:35:00
5:55 AM,39.2,39.2,100,30.26,10.0,Calm,Calm,-,N/A,,Clear,0,2014-01-10 13:55:00
6:15 AM,39.2,39.2,100,30.26,10.0,Calm,Calm,-,N/A,,Clear,0,2014-01-10 14:15:00
6:35 AM,39.2,39.2,100,30.27,10.0,South,3.5,-,N/A,,Clear,190,2014-01-10 14:35:00
6:55 AM,39.2,39.2,100,30.27,10.0,SSW,3.5,-,N/A,,Clear,200,2014-01-10 14:55:00
7:15 AM,39.2,39.2,100,30.27,10.0,SSW,3.5,-,N/A,,Clear,210,2014-01-10 15:15:00
7:35 AM,39.2,39.2,100,30.28,10.0,SW,3.5,-,N/A,,Clear,220,2014-01-10 15:35:00
7:55 AM,39.2,39.2,100,30.29,10.0,Calm,Calm,-,N/A,,Scattered Clouds,0,2014-01-10 15:55:00
8:15 AM,41.0,41.0,100,30.29,10.0,Calm,Calm,-,N/A,,Overcast,0,2014-01-10 16:15:00
8:35 AM,42.8,42.8,100,30.30,10.0,Calm,Calm,-,N/A,,Overcast,0,2014-01-10 16:35:00
8:55 AM,44.6,44.6,100,30.31,2.5,Calm,Calm,-,N/A,,Overcast,0,2014-01-10 16:55:00
9:15 AM,46.4,46.4,100,30.31,0.2,Calm,Calm,-,N/A,Fog,Fog,0,2014-01-10 17:15:00
9:35 AM,46.4,46.4,100,30.31,1.2,Calm,Calm,-,N/A,,Overcast,0,2014-01-10 17:35:00
9:55 AM,48.2,48.2,100,30.32,10.0,Calm,Calm,-,N/A,,Mostly Cloudy,0,2014-01-10 17:55:00
10:15 AM,50.0,50.0,100,30.32,10.0,Calm,Calm,-,N/A,,Partly Cloudy,0,2014-01-10 18:15:00
10:35 AM,50.0,50.0,100,30.32,10.0,Calm,Calm,-,N/A,,Clear,0,2014-01-10 18:35:00
10:55 AM,53.6,50.0,88,30.32,10.0,Calm,Calm,-,N/A,,Clear,0,2014-01-10 18:55:00
11:15 AM,55.4,50.0,82,30.31,10.0,Calm,Calm,-,N/A,,Clear,0,2014-01-10 19:15:00
11:35 AM,57.2,50.0,77,30.30,10.0,Calm,Calm,-,N/A,,Clear,0,2014-01-10 19:35:00
11:55 AM,57.2,48.2,72,30.29,10.0,SE,3.5,-,N/A,,Clear,140,2014-01-10 19:55:00
12:15 PM,57.2,46.4,67,30.27,10.0,SE,5.8,-,N/A,,Clear,130,2014-01-10 20:15:00
12:35 PM,57.2,46.4,67,30.26,10.0,ESE,6.9,-,N/A,,Clear,120,2014-01-10 20:35:00
12:55 PM,59.0,44.6,59,30.25,10.0,SE,5.8,-,N/A,,Clear,130,2014-01-10 20:55:00
1:15 PM,59.0,44.6,59,30.24,10.0,SE,4.6,-,N/A,,Clear,130,2014-01-10 21:15:00
1:35 PM,60.8,44.6,55,30.22,10.0,Calm,Calm,-,N/A,,Clear,0,2014-01-10 21:35:00
1:55 PM,60.8,44.6,55,30.22,10.0,SE,4.6,-,N/A,,Clear,130,2014-01-10 21:55:00
2:15 PM,60.8,44.6,55,30.21,10.0,Calm,Calm,-,N/A,,Clear,0,2014-01-10 22:15:00
2:35 PM,62.6,44.6,52,30.21,10.0,East,5.8,-,N/A,,Clear,100,2014-01-10 22:35:00
2:55 PM,62.6,44.6,52,30.20,10.0,East,3.5,-,N/A,,Clear,100,2014-01-10 22:55:00
3:15 PM,62.6,44.6,52,30.20,10.0,Calm,Calm,-,N/A,,Clear,0,2014-01-10 23:15:00
3:35 PM,62.6,42.8,48,30.19,10.0,SE,3.5,-,N/A,,Clear,140,2014-01-10 23:35:00
3:55 PM,62.6,41.0,45,30.19,10.0,SE,3.5,-,N/A,,Clear,130,2014-01-10 23:55:00
4:15 PM,60.8,41.0,48,30.19,10.0,Calm,Calm,-,N/A,,Clear,0,2014-01-11 00:15:00
4:35 PM,59.0,41.0,51,30.19,10.0,Calm,Calm,-,N/A,,Clear,0,2014-01-11 00:35:00
4:55 PM,57.2,42.8,59,30.19,10.0,Calm,Calm,-,N/A,,Clear,0,2014-01-11 00:55:00
5:15 PM,55.4,41.0,58,30.19,10.0,NE,3.5,-,N/A,,Clear,50,2014-01-11 01:15:00
5:35 PM,53.6,41.0,62,30.19,10.0,North,-9999.0,-,N/A,,Clear,0,2014-01-11 01:35:00
5:55 PM,53.6,41.0,62,30.19,10.0,Calm,Calm,-,N/A,,Clear,0,2014-01-11 01:55:00
6:15 PM,51.8,41.0,67,30.20,10.0,Calm,Calm,-,N/A,,Clear,0,2014-01-11 02:15:00
6:35 PM,46.4,42.8,87,30.20,10.0,NNW,3.5,-,N/A,,Clear,330,2014-01-11 02:35:00
6:55 PM,46.4,41.0,81,30.20,10.0,Calm,Calm,-,N/A,,Clear,0,2014-01-11 02:55:00
7:15 PM,46.4,41.0,81,30.21,10.0,Calm,Calm,-,N/A,,Clear,0,2014-01-11 03:15:00
7:35 PM,46.4,42.8,87,30.21,10.0,Calm,Calm,-,N/A,,Clear,0,2014-01-11 03:35:00
7:55 PM,46.4,42.8,87,30.22,10.0,Calm,Calm,-,N/A,,Clear,0,2014-01-11 03:55:00
8:15 PM,48.2,44.6,87,30.22,10.0,Calm,Calm,-,N/A,,Clear,0,2014-01-11 04:15:00
8:35 PM,46.4,44.6,93,30.22,10.0,Calm,Calm,-,N/A,,Clear,0,2014-01-11 04:35:00
8:55 PM,46.4,46.4,100,30.22,10.0,Calm,Calm,-,N/A,,Clear,0,2014-01-11 04:55:00
9:15 PM,44.6,44.6,100,30.22,10.0,Calm,Calm,-,N/A,,Clear,0,2014-01-11 05:15:00
9:35 PM,44.6,44.6,100,30.22,10.0,Calm,Calm,-,N/A,,Clear,0,2014-01-11 05:35:00
9:55 PM,42.8,42.8,100,30.22,1.5,Calm,Calm,-,N/A,,Clear,0,2014-01-11 05:55:00
10:15 PM,44.6,44.6,100,30.22,10.0,Calm,Calm,-,N/A,,Clear,0,2014-01-11 06:15:00
10:35 PM,44.6,44.6,100,30.23,10.0,Calm,Calm,-,N/A,,Clear,0,2014-01-11 06:35:00
10:55 PM,44.6,44.6,100,30.22,10.0,Calm,Calm,-,N/A,,Clear,0,2014-01-11 06:55:00
11:15 PM,41.0,41.0,100,30.22,10.0,Calm,Calm,-,N/A,,Clear,0,2014-01-11 07:15:00
11:35 PM,39.2,39.2,100,30.22,3.0,Calm,Calm,-,N/A,,Clear,0,2014-01-11 07:35:00
11:55 PM,39.2,39.2,100,30.22,0.5,North,4.6,-,N/A,Fog,Fog,10,2014-01-11 07:55:00